Flag for U.S.A. Weather past 2 weeks in Hudson, Wisconsin, U.S.A.

Now
19 °F

Mostly cloudy.


Feels Like: 4 °F
Forecast: 6 / 20 °F
Wind: 16 mph from Northeast

Location: St. Paul Downtown Holman Field

Current Time: Feb 1, 2015 at 3:05:34 AM

Latest Report: Feb 1, 2015 at 1:53 AM


Visibility: 10 mi

Pressure: 30.25 "Hg

Humidity: 62%

Dew point: 8 °F

Location of HudsonLocation

Historic Weather in Hudson — Graph

°F

Hudson temperature yesterday

Maximum temperature yesterday: 29 °F (at 10:53 AM)
Minimum temperature yesterday: 21 °F (at 6:53 AM)
Average temperature yesterday: 25 °F

Past Weeks' High & Low Weather Summary

 TemperatureHumidityPressure
High44 °F (Jan 26, 2:53 PM)100% (Jan 24, 6:53 AM)30.60 "Hg (Jan 24, 6:53 AM)
Low11 °F (Jan 30, 4:53 AM)52% (Jan 25, 3:53 PM)29.52 "Hg (Jan 17, 12:53 PM)
Average29 °F78%30.03 "Hg
* Reported Jan 17 1:53 AM — Feb 1 1:53 AM, Hudson, Weather by CustomWeather, © 2014

Note: Actual official high and low records may vary slightly from our data, if they occured in-between our weather recording intervals... More about our weather records

Advertising

Hudson weather history for previous 24 hours

 ConditionsComfort  
Time TempWeatherWind HumidityBarometerVisibility
1:53 AM
Feb 1
19 °FMostly cloudy.16 mph62%30.25 "Hg10 mi
12:53 AM20 °FMostly cloudy.18 mph62%30.25 "Hg10 mi
11:53 PM
Jan 31
21 °FOvercast.14 mph60%30.26 "Hg10 mi
10:53 PM23 °FOvercast.15 mph60%30.25 "Hg10 mi
9:53 PM25 °FOvercast.13 mph58%30.24 "Hg10 mi
8:53 PM26 °FOvercast.12 mph57%30.23 "Hg10 mi
7:53 PM26 °FOvercast.10 mph60%30.24 "Hg10 mi
6:53 PM26 °FOvercast.13 mph63%30.24 "Hg10 mi
5:53 PM28 °FPassing clouds.7 mph64%30.24 "Hg10 mi
4:53 PM28 °FOvercast.8 mph64%30.23 "Hg10 mi
3:53 PM28 °FOvercast.8 mph66%30.23 "Hg10 mi
2:53 PM28 °FOvercast.8 mph66%30.24 "Hg10 mi
1:53 PM28 °FOvercast.9 mph69%30.24 "Hg10 mi
12:53 PM29 °FOvercast.10 mph69%30.24 "Hg10 mi
11:53 AM28 °FOvercast.9 mph72%30.25 "Hg10 mi
10:53 AM29 °FOvercast.12 mph72%30.25 "Hg10 mi
9:53 AM28 °FOvercast.10 mph78%30.23 "Hg10 mi
8:53 AM28 °FOvercast.12 mph81%30.22 "Hg10 mi
7:53 AM25 °FMore clouds than sun.No wind88%30.21 "Hg9 mi
6:53 AM21 °FOvercast.No wind92%30.20 "Hg10 mi
5:53 AM23 °FClear.No wind88%30.18 "Hg10 mi
4:53 AM24 °FOvercast.3 mph88%30.17 "Hg10 mi
3:53 AM24 °FOvercast.No wind84%30.17 "Hg10 mi
Weather by CustomWeather, © 2014

See weather overviewHow to use our weather pages